| time (UTC) | temp F | wind direction | speed MPH | gust MPH | rain 1hr in | rain 24hr in | rain mn in | humidity % | barometer mb |
| 20260504000512 | 62 | 161 | 3.0 | 12.0 | 0.00 | 0.00 | 0.00 | 45 | 1013.2 |
| 20260504000032 | 63 | 239 | 2.0 | 12.0 | 0.00 | 0.00 | 0.00 | 45 | 1013.1 |
| 20260503235512 | 63 | 217 | 2.0 | 11.0 | 0.00 | 0.00 | 0.00 | 44 | 1013.2 |
| 20260503235011 | 63 | 156 | 3.0 | 11.0 | 0.00 | 0.00 | 0.00 | 44 | 1013.2 |
| 20260503234543 | 63 | 220 | 4.0 | 9.0 | 0.00 | 0.00 | 0.00 | 43 | 1013.3 |
| 20260503234013 | 63 | 227 | 3.0 | 13.0 | 0.00 | 0.00 | 0.00 | 44 | 1013.1 |
| 20260503233513 | 63 | 212 | 4.0 | 13.0 | 0.00 | 0.00 | 0.00 | 43 | 1013.2 |
| 20260503233031 | 64 | 146 | 4.0 | 13.0 | 0.00 | 0.00 | 0.00 | 43 | 1013.1 |
| 20260503232512 | 64 | 217 | 4.0 | 11.0 | 0.00 | 0.00 | 0.00 | 42 | 1013.1 |
| 20260503232014 | 64 | 198 | 3.0 | 13.0 | 0.00 | 0.00 | 0.00 | 42 | 1013.2 |
| 20260503231532 | 64 | 144 | 5.0 | 13.0 | 0.00 | 0.00 | 0.00 | 42 | 1013.3 |
| 20260503231018 | 64 | 174 | 6.0 | 12.0 | 0.00 | 0.00 | 0.00 | 41 | 1013.4 |
| 20260503230518 | 64 | 268 | 3.0 | 11.0 | 0.00 | 0.00 | 0.00 | 42 | 1013.5 |
| 20260503230040 | 65 | 259 | 4.0 | 11.0 | 0.00 | 0.00 | 0.00 | 40 | 1013.6 |
| 20260503225516 | 64 | 229 | 5.0 | 11.0 | 0.00 | 0.00 | 0.00 | 41 | 1013.7 |
| 20260503225015 | 64 | 247 | 4.0 | 11.0 | 0.00 | 0.00 | 0.00 | 41 | 1014.0 |
| 20260503224532 | 63 | 275 | 4.0 | 14.0 | 0.00 | 0.00 | 0.00 | 41 | 1014.1 |
| 20260503224013 | 63 | 260 | 5.0 | 14.0 | 0.00 | 0.00 | 0.00 | 40 | 1014.0 |
| 20260503223518 | 63 | 234 | 3.0 | 11.0 | 0.00 | 0.00 | 0.00 | 41 | 1014.2 |
| 20260503223032 | 63 | 252 | 3.0 | 8.0 | 0.00 | 0.00 | 0.00 | 42 | 1014.3 |
| 20260503222513 | 63 | 216 | 4.0 | 10.0 | 0.00 | 0.00 | 0.00 | 40 | 1014.4 |
| 20260503222017 | 64 | 240 | 4.0 | 10.0 | 0.00 | 0.00 | 0.00 | 40 | 1014.5 |
| 20260503221531 | 64 | 212 | 4.0 | 13.0 | 0.00 | 0.00 | 0.00 | 39 | 1014.6 |
| 20260503221018 | 64 | 193 | 8.0 | 16.0 | 0.00 | 0.00 | 0.00 | 39 | 1014.6 |
| 20260503220515 | 64 | 301 | 7.0 | 16.0 | 0.00 | 0.00 | 0.00 | 38 | 1014.4 |
| 20260503220044 | 64 | 260 | 5.0 | 14.0 | 0.00 | 0.00 | 0.00 | 39 | 1014.5 |
| 20260503215515 | 64 | 238 | 7.0 | 20.0 | 0.00 | 0.00 | 0.00 | 37 | 1014.6 |
| 20260503215013 | 64 | 202 | 11.0 | 20.0 | 0.00 | 0.00 | 0.00 | 37 | 1014.9 |
| 20260503214530 | 64 | 221 | 5.0 | 13.0 | 0.00 | 0.00 | 0.00 | 39 | 1015.0 |
| 20260503214012 | 64 | 292 | 8.0 | 16.0 | 0.00 | 0.00 | 0.00 | 38 | 1014.9 |
| 20260503213514 | 64 | 229 | 8.0 | 16.0 | 0.00 | 0.00 | 0.00 | 38 | 1015.1 |
| 20260503213032 | 65 | 224 | 8.0 | 15.0 | 0.00 | 0.00 | 0.00 | 37 | 1015.1 |
| 20260503212513 | 65 | 210 | 6.0 | 15.0 | 0.00 | 0.00 | 0.00 | 38 | 1015.1 |
| 20260503212015 | 65 | 267 | 6.0 | 12.0 | 0.00 | 0.00 | 0.00 | 38 | 1015.2 |
| 20260503211532 | 65 | 229 | 5.0 | 16.0 | 0.00 | 0.00 | 0.00 | 38 | 1015.1 |
| 20260503211015 | 64 | 249 | 4.0 | 16.0 | 0.00 | 0.00 | 0.00 | 38 | 1014.8 |
| 20260503210513 | 64 | 172 | 8.0 | 16.0 | 0.00 | 0.00 | 0.00 | 38 | 1014.9 |
| 20260503210031 | 64 | 203 | 5.0 | 12.0 | 0.00 | 0.00 | 0.00 | 38 | 1015.0 |
| 20260503205513 | 64 | 198 | 6.0 | 16.0 | 0.00 | 0.00 | 0.00 | 38 | 1015.1 |
| 20260503205014 | 64 | 227 | 6.0 | 16.0 | 0.00 | 0.00 | 0.00 | 38 | 1015.2 |
| 20260503204532 | 65 | 172 | 5.0 | 11.0 | 0.00 | 0.00 | 0.00 | 40 | 1015.5 |
| 20260503204014 | 64 | 295 | 5.0 | 15.0 | 0.00 | 0.00 | 0.00 | 40 | 1015.5 |
| 20260503203511 | 64 | 204 | 4.0 | 15.0 | 0.00 | 0.00 | 0.00 | 39 | 1015.3 |
| 20260503203033 | 64 | 250 | 5.0 | 15.0 | 0.00 | 0.00 | 0.00 | 39 | 1015.7 |
| 20260503202513 | 63 | 233 | 4.0 | 13.0 | 0.00 | 0.00 | 0.00 | 39 | 1015.7 |
| 20260503202014 | 63 | 205 | 5.0 | 14.0 | 0.00 | 0.00 | 0.00 | 40 | 1015.9 |
| 20260503201533 | 63 | 252 | 6.0 | 14.0 | 0.00 | 0.00 | 0.00 | 37 | 1015.8 |
| 20260503201012 | 63 | 276 | 7.0 | 14.0 | 0.00 | 0.00 | 0.00 | 39 | 1016.0 |
| 20260503200512 | 62 | 172 | 5.0 | 16.0 | 0.00 | 0.00 | 0.00 | 40 | 1016.0 |
| 20260503200032 | 63 | 288 | 7.0 | 16.0 | 0.00 | 0.00 | 0.00 | 38 | 1016.1 |
| 20260503195511 | 64 | 274 | 7.0 | 15.0 | 0.00 | 0.00 | 0.00 | 38 | 1016.0 |
| 20260503195015 | 63 | 326 | 5.0 | 17.0 | 0.00 | 0.00 | 0.00 | 38 | 1016.3 |
| 20260503194531 | 63 | 15 | 9.0 | 17.0 | 0.00 | 0.00 | 0.00 | 38 | 1016.4 |
| 20260503194012 | 63 | 260 | 5.0 | 13.0 | 0.00 | 0.00 | 0.00 | 40 | 1016.6 |
| 20260503193516 | 62 | 217 | 3.0 | 16.0 | 0.00 | 0.00 | 0.00 | 39 | 1016.8 |
| 20260503193035 | 63 | 184 | 9.0 | 16.0 | 0.00 | 0.00 | 0.00 | 38 | 1016.8 |
| 20260503192514 | 63 | 139 | 4.0 | 13.0 | 0.00 | 0.00 | 0.00 | 39 | 1016.9 |
| 20260503192013 | 64 | 139 | 4.0 | 13.0 | 0.00 | 0.00 | 0.00 | 38 | 1017.0 |
| 20260503191531 | 63 | 163 | 4.0 | 12.0 | 0.00 | 0.00 | 0.00 | 39 | 1017.1 |
| 20260503191013 | 63 | 129 | 4.0 | 14.0 | 0.00 | 0.00 | 0.00 | 36 | 1017.2 |
| 20260503190512 | 62 | 239 | 7.0 | 14.0 | 0.00 | 0.00 | 0.00 | 39 | 1017.1 |
| 20260503190032 | 62 | 188 | 6.0 | 14.0 | 0.00 | 0.00 | 0.00 | 38 | 1017.4 |
| 20260503185513 | 62 | 226 | 3.0 | 14.0 | 0.00 | 0.00 | 0.00 | 39 | 1017.4 |
| 20260503185014 | 62 | 259 | 3.0 | 14.0 | 0.00 | 0.00 | 0.00 | 40 | 1017.6 |
| 20260503184532 | 62 | 146 | 5.0 | 14.0 | 0.00 | 0.00 | 0.00 | 37 | 1017.6 |
| 20260503184013 | 62 | 167 | 2.0 | 16.0 | 0.00 | 0.00 | 0.00 | 41 | 1017.8 |
| 20260503183516 | 61 | 246 | 7.0 | 16.0 | 0.00 | 0.00 | 0.00 | 40 | 1017.9 |
| 20260503183044 | 61 | 248 | 8.0 | 16.0 | 0.00 | 0.00 | 0.00 | 39 | 1017.9 |
| 20260503182512 | 62 | 176 | 3.0 | 11.0 | 0.00 | 0.00 | 0.00 | 40 | 1017.8 |
| 20260503182010 | 60 | 130 | 6.0 | 14.0 | 0.00 | 0.00 | 0.00 | 41 | 1017.9 |
| 20260503181531 | 60 | 284 | 6.0 | 14.0 | 0.00 | 0.00 | 0.00 | 40 | 1018.1 |
| 20260503181014 | 61 | 305 | 6.0 | 14.0 | 0.00 | 0.00 | 0.00 | 41 | 1018.1 |
| 20260503180512 | 61 | 290 | 4.0 | 14.0 | 0.00 | 0.00 | 0.00 | 39 | 1018.1 |
| 20260503180031 | 61 | 216 | 4.0 | 14.0 | 0.00 | 0.00 | 0.00 | 39 | 1018.2 |
| 20260503175512 | 60 | 276 | 6.0 | 14.0 | 0.00 | 0.00 | 0.00 | 37 | 1018.3 |
| 20260503175018 | 60 | 134 | 4.0 | 16.0 | 0.00 | 0.00 | 0.00 | 39 | 1018.4 |
| 20260503174533 | 60 | 223 | 6.0 | 16.0 | 0.00 | 0.00 | 0.00 | 38 | 1018.5 |
| 20260503174013 | 61 | 231 | 5.0 | 16.0 | 0.00 | 0.00 | 0.00 | 38 | 1018.4 |
| 20260503173515 | 60 | 184 | 4.0 | 12.0 | 0.00 | 0.00 | 0.00 | 39 | 1018.7 |
| 20260503173030 | 60 | 195 | 6.0 | 14.0 | 0.00 | 0.00 | 0.00 | 38 | 1018.8 |
| 20260503172513 | 60 | 186 | 8.0 | 14.0 | 0.00 | 0.00 | 0.00 | 39 | 1018.8 |
| 20260503172017 | 60 | 255 | 3.0 | 12.0 | 0.00 | 0.00 | 0.00 | 39 | 1018.9 |
| 20260503171532 | 60 | 210 | 4.0 | 12.0 | 0.00 | 0.00 | 0.00 | 40 | 1019.0 |
| 20260503171013 | 60 | 259 | 3.0 | 11.0 | 0.00 | 0.00 | 0.00 | 43 | 1019.1 |
| 20260503170511 | 59 | 233 | 5.0 | 11.0 | 0.00 | 0.00 | 0.00 | 40 | 1019.2 |
| 20260503151012 | 56 | 172 | 4.0 | 11.0 | 0.00 | 0.00 | 0.00 | 47 | 1020.3 |
| 20260503150512 | 56 | 243 | 4.0 | 11.0 | 0.00 | 0.00 | 0.00 | 46 | 1020.3 |
| 20260503131013 | 49 | 150 | 2.0 | 7.0 | 0.00 | 0.00 | 0.00 | 63 | 1020.3 |
| 20260503130512 | 49 | 143 | 3.0 | 7.0 | 0.00 | 0.00 | 0.00 | 62 | 1020.3 |
| 20260503110512 | 37 | 141 | 0.0 | 2.0 | 0.00 | 0.00 | 0.00 | 81 | 1019.6 |
| 20260503090513 | 34 | 0 | 0.0 | 0.0 | 0.00 | 0.00 | 0.00 | 93 | 1019.2 |
| 20260503081535 | 33 | 0 | 0.0 | 0.0 | 0.00 | 0.00 | 0.00 | 91 | 1019.1 |
| 20260503081013 | 33 | 0 | 0.0 | 0.0 | 0.00 | 0.00 | 0.00 | 91 | 1019.0 |
| 20260503080511 | 34 | 0 | 0.0 | 0.0 | 0.00 | 0.00 | 0.00 | 91 | 1019.0 |
| 20260503072512 | 34 | 0 | 0.0 | 0.0 | 0.00 | 0.00 | 0.00 | 92 | 1018.8 |
| 20260503072013 | 34 | 0 | 0.0 | 0.0 | 0.00 | 0.00 | 0.00 | 91 | 1018.8 |
| 20260503071534 | 34 | 0 | 0.0 | 0.0 | 0.00 | 0.00 | 0.00 | 91 | 1018.8 |
| 20260503071012 | 34 | 0 | 0.0 | 0.0 | 0.00 | 0.00 | 0.00 | 91 | 1018.8 |
| 20260503070512 | 34 | 0 | 0.0 | 0.0 | 0.00 | 0.00 | 0.00 | 90 | 1018.9 |
| 20260503055013 | 37 | 0 | 0.0 | 0.0 | 0.00 | 0.00 | 0.00 | 88 | 1019.2 |
| 20260503054533 | 37 | 0 | 0.0 | 0.0 | 0.00 | 0.00 | 0.00 | 87 | 1019.1 |
| 20260503054013 | 37 | 0 | 0.0 | 0.0 | 0.00 | 0.00 | 0.00 | 87 | 1019.2 |
| 20260503053513 | 37 | 0 | 0.0 | 0.0 | 0.00 | 0.00 | 0.00 | 87 | 1019.3 |
| 20260503053034 | 37 | 0 | 0.0 | 0.0 | 0.00 | 0.00 | 0.00 | 87 | 1019.2 |
| 20260503052513 | 38 | 0 | 0.0 | 0.0 | 0.00 | 0.00 | 0.00 | 86 | 1019.2 |
| 20260503052013 | 38 | 0 | 0.0 | 0.0 | 0.00 | 0.00 | 0.00 | 85 | 1019.2 |
| 20260503051530 | 38 | 0 | 0.0 | 0.0 | 0.00 | 0.00 | 0.00 | 84 | 1019.2 |
| 20260503051012 | 38 | 0 | 0.0 | 0.0 | 0.00 | 0.00 | 0.00 | 83 | 1019.2 |
| 20260503050513 | 38 | 0 | 0.0 | 0.0 | 0.00 | 0.00 | 0.00 | 83 | 1019.1 |
| 20260503050036 | 38 | 0 | 0.0 | 1.0 | 0.00 | 0.00 | 0.00 | 83 | 1019.1 |
| 20260503045514 | 38 | 0 | 0.0 | 1.0 | 0.00 | 0.00 | 0.00 | 83 | 1019.1 |
| 20260503045019 | 38 | 0 | 0.0 | 1.0 | 0.00 | 0.00 | 0.00 | 84 | 1019.0 |
| 20260503044532 | 38 | 0 | 0.0 | 0.0 | 0.00 | 0.00 | 0.00 | 84 | 1019.2 |
| 20260503044012 | 38 | 0 | 0.0 | 0.0 | 0.00 | 0.00 | 0.00 | 83 | 1019.1 |
| 20260503043510 | 39 | 0 | 0.0 | 0.0 | 0.00 | 0.00 | 0.00 | 82 | 1019.2 |
| 20260503043031 | 39 | 0 | 0.0 | 0.0 | 0.00 | 0.00 | 0.00 | 82 | 1019.3 |
| 20260503042513 | 39 | 0 | 0.0 | 0.0 | 0.00 | 0.00 | 0.00 | 81 | 1019.2 |
| 20260503042014 | 39 | 0 | 0.0 | 0.0 | 0.00 | 0.00 | 0.00 | 81 | 1019.1 |
| 20260503041532 | 40 | 0 | 0.0 | 0.0 | 0.00 | 0.00 | 0.00 | 79 | 1019.1 |
| 20260503041014 | 41 | 0 | 0.0 | 0.0 | 0.00 | 0.00 | 0.00 | 79 | 1019.1 |
| 20260503040513 | 41 | 0 | 0.0 | 1.0 | 0.00 | 0.00 | 0.00 | 78 | 1019.0 |
| 20260503040036 | 41 | 0 | 0.0 | 1.0 | 0.00 | 0.00 | 0.00 | 76 | 1019.1 |
| 20260503035513 | 42 | 42 | 0.0 | 1.0 | 0.00 | 0.00 | 0.00 | 76 | 1019.1 |
| 20260503035014 | 42 | 0 | 0.0 | 1.0 | 0.00 | 0.00 | 0.00 | 77 | 1019.0 |
| 20260503034536 | 42 | 0 | 0.0 | 0.0 | 0.00 | 0.00 | 0.00 | 76 | 1019.1 |
| 20260503034012 | 42 | 0 | 0.0 | 1.0 | 0.00 | 0.00 | 0.00 | 75 | 1019.1 |
| 20260503033511 | 43 | 0 | 0.0 | 1.0 | 0.00 | 0.00 | 0.00 | 74 | 1019.0 |
| 20260503033031 | 43 | 42 | 0.0 | 1.0 | 0.00 | 0.00 | 0.00 | 74 | 1019.1 |
| 20260503032515 | 43 | 0 | 0.0 | 1.0 | 0.00 | 0.00 | 0.00 | 75 | 1019.1 |
| 20260503032020 | 44 | 0 | 0.0 | 1.0 | 0.00 | 0.00 | 0.00 | 74 | 1019.0 |
| 20260503031535 | 44 | 0 | 0.0 | 1.0 | 0.00 | 0.00 | 0.00 | 73 | 1019.0 |
| 20260503031016 | 44 | 43 | 0.0 | 1.0 | 0.00 | 0.00 | 0.00 | 73 | 1019.0 |
| 20260503030512 | 45 | 42 | 0.0 | 1.0 | 0.00 | 0.00 | 0.00 | 73 | 1019.0 |
| 20260503030031 | 45 | 43 | 0.0 | 1.0 | 0.00 | 0.00 | 0.00 | 73 | 1019.0 |
| 20260503025512 | 45 | 42 | 0.0 | 1.0 | 0.00 | 0.00 | 0.00 | 72 | 1018.9 |
| 20260503025014 | 46 | 0 | 0.0 | 1.0 | 0.00 | 0.00 | 0.00 | 71 | 1018.8 |
| 20260503024533 | 46 | 0 | 0.0 | 1.0 | 0.00 | 0.00 | 0.00 | 69 | 1018.8 |
| 20260503024014 | 46 | 43 | 0.0 | 2.0 | 0.00 | 0.00 | 0.00 | 68 | 1018.7 |
| 20260503023511 | 47 | 42 | 0.0 | 3.0 | 0.00 | 0.00 | 0.00 | 67 | 1018.7 |
| 20260503023033 | 47 | 42 | 1.0 | 4.0 | 0.00 | 0.00 | 0.00 | 66 | 1018.6 |
| 20260503022510 | 47 | 23 | 1.0 | 4.0 | 0.00 | 0.00 | 0.00 | 66 | 1018.6 |
| 20260503022014 | 47 | 18 | 2.0 | 4.0 | 0.00 | 0.00 | 0.00 | 65 | 1018.5 |
| 20260503021532 | 48 | 49 | 1.0 | 2.0 | 0.00 | 0.00 | 0.00 | 66 | 1018.5 |
| 20260503021014 | 48 | 37 | 1.0 | 2.0 | 0.00 | 0.00 | 0.00 | 66 | 1018.3 |
| 20260503020513 | 48 | 47 | 1.0 | 2.0 | 0.00 | 0.00 | 0.00 | 68 | 1018.3 |
| 20260503020032 | 48 | 9 | 1.0 | 3.0 | 0.00 | 0.00 | 0.00 | 68 | 1018.3 |
| 20260503015512 | 48 | 8 | 0.0 | 3.0 | 0.00 | 0.00 | 0.00 | 69 | 1018.2 |
| 20260503015012 | 48 | 46 | 0.0 | 1.0 | 0.00 | 0.00 | 0.00 | 68 | 1018.2 |
| 20260503014540 | 48 | 46 | 0.0 | 2.0 | 0.00 | 0.00 | 0.00 | 68 | 1018.1 |
| 20260503014012 | 49 | 46 | 1.0 | 2.0 | 0.00 | 0.00 | 0.00 | 67 | 1018.0 |
| 20260503013513 | 49 | 46 | 0.0 | 2.0 | 0.00 | 0.00 | 0.00 | 67 | 1018.0 |
| 20260503013032 | 49 | 46 | 1.0 | 2.0 | 0.00 | 0.00 | 0.00 | 67 | 1017.9 |
| 20260503012510 | 49 | 32 | 1.0 | 3.0 | 0.00 | 0.00 | 0.00 | 67 | 1017.9 |
| 20260503012013 | 49 | 0 | 0.0 | 3.0 | 0.00 | 0.00 | 0.00 | 67 | 1017.9 |
| 20260503011530 | 49 | 38 | 2.0 | 3.0 | 0.00 | 0.00 | 0.00 | 68 | 1017.7 |
| 20260503011011 | 49 | 7 | 0.0 | 3.0 | 0.00 | 0.00 | 0.00 | 68 | 1017.6 |
| 20260503010513 | 49 | 39 | 0.0 | 1.0 | 0.00 | 0.00 | 0.00 | 68 | 1017.6 |
| 20260503010032 | 49 | 0 | 0.0 | 1.0 | 0.00 | 0.00 | 0.00 | 68 | 1017.6 |
| 20260503005510 | 50 | 0 | 0.0 | 1.0 | 0.00 | 0.00 | 0.00 | 68 | 1017.5 |
| 20260503005015 | 50 | 0 | 0.0 | 1.0 | 0.00 | 0.00 | 0.00 | 67 | 1017.5 |
| 20260503004532 | 50 | 0 | 0.0 | 1.0 | 0.00 | 0.00 | 0.00 | 65 | 1017.4 |
| 20260503004012 | 51 | 0 | 0.0 | 0.0 | 0.00 | 0.00 | 0.00 | 63 | 1017.5 |
| 20260503003512 | 51 | 0 | 0.0 | 0.0 | 0.00 | 0.00 | 0.00 | 64 | 1017.4 |
| 20260503003032 | 51 | 0 | 0.0 | 1.0 | 0.00 | 0.00 | 0.00 | 63 | 1017.4 |
| 20260503002512 | 51 | 0 | 0.0 | 1.0 | 0.00 | 0.00 | 0.00 | 62 | 1017.3 |
| 20260503002016 | 51 | 0 | 0.0 | 2.0 | 0.00 | 0.00 | 0.00 | 61 | 1017.3 |
| 20260503001532 | 52 | 0 | 0.0 | 2.0 | 0.00 | 0.00 | 0.00 | 60 | 1017.2 |
| 20260503001012 | 52 | 39 | 1.0 | 3.0 | 0.00 | 0.00 | 0.00 | 59 | 1017.1 |